Terug naar catalogus

NOAA 16 DEB

ActiefPO
NORAD 41292·DEBRIS·🇺🇸 United States

Gelanceerd Sep 21, 2000 vanaf Vandenberg Space Force Base

Loading…

Volgende Passages (komende 24 uur)

TLE

VersSource: Space-Track

Epoch: Sep 14, 2026, 15:03 UTC

1 41292U 00055GU  26257.62732336  .00005297  00000-0  11052-2 0  9996
2 41292  98.9572 141.7567 0031405 106.6348 253.8302 14.60076861560881

Volg NOAA 16 DEB in realtime met AllMySat

Download on the App Store